Regional Weather Roundup
Issued by NWS

Home | Current Version | Previous Version | Text Only | Print | Product List | Glossary On
Versions: 1 2 3 4 5 6 7 8 9 10 11 12 13 14 15 16 17 18 19 20 21 22 23 24 25 26 27 28 29 30 31 32 33 34 35 36 37 38 39 40 41 42 43 44 45 46 47 48 49 50
000
ASUS45 KTFX 292310
RWRMT
MONTANA REGIONAL WEATHER ROUNDUP
NATIONAL WEATHER SERVICE GREAT FALLS MT
500 PM MDT MON MAY 29 2017

NOTE: "FAIR" INDICATES FEW OR NO CLOUDS BELOW 12000 FEET WITH NO
SIGNIFICANT WEATHER AND/OR OBSTRUCTIONS TO VISIBILITY.

MTZ001>007-043-300000-
WEST OF THE DIVIDE

CITY           SKY/WX    TMP DP  RH WIND       PRES   REMARKS
KALISPELL      MOSUNNY   80  43  26 VRB3      30.04F
MISSOULA       SUNNY     82  38  20 W6        30.04F
BUTTE          PTSUNNY   69  34  27 SE9       30.18F
MULLAN PASS    MOSUNNY   70  29  21 VRB3      30.19F
ANACONDA         N/A     70  34  26 NW14G25   30.15S
DEER LODGE       N/A     75  34  22 SW5       30.15F
EUREKA           N/A     77  39  25 CALM      30.05S
HAMILTON         N/A     81  34  18 N5        30.04F
PLAINS           N/A     85  47  26 CALM      30.00F
$$

MTZ008-052>055-300000-
SOUTHWEST MONTANA

CITY           SKY/WX    TMP DP  RH WIND       PRES   REMARKS
BOZEMAN        SUNNY     75  29  18 VRB3      30.14F
DILLON         SUNNY     75  34  22 NE6       30.14F
ENNIS          SUNNY     73  32  21 VRB6G12   30.21F
THREE FORKS      N/A     74  37  26 E2        30.12F
TWIN BRIDGES     N/A     75  32  20 SW3       30.12F
$$

MTZ009-010-012-014-046-048-049-054-300000-
EAST SLOPES AND CENTRAL MONTANA

CITY           SKY/WX    TMP DP  RH WIND       PRES   REMARKS
CUT BANK       PTSUNNY   75  42  30 N13       30.12F
GREAT FALLS    SUNNY     77  40  26 VRB5      30.11F
MALMSTROM AFB  MOSUNNY   74  44  34 E9        30.12S
HELENA         SUNNY     80  33  18 NE5       30.10F
CHOTEAU          N/A     66  41  39 W23G36    30.15F
CONRAD           N/A     77  56  48 N3        30.13F
$$

MTZ011-013-016-021-045-047-050-051-300000-
NORTH CENTRAL MONTANA

CITY           SKY/WX    TMP DP  RH WIND       PRES   REMARKS
HAVRE          SUNNY     74  34  23 SE7       30.11F
LEWISTOWN      SUNNY     70  38  31 VRB6      30.16F
N BAR RANCH      N/A     68  37  32 NW7G14    30.20S
CHINOOK          N/A     73  30  20 E7        30.11F
FORT BENTON      N/A     77  39  25 MISG      30.11F
$$

MTZ017>020-022>027-061-062-300000-
NORTHEAST MONTANA

CITY           SKY/WX    TMP DP  RH WIND       PRES   REMARKS
GLASGOW        SUNNY     71  27  19 N14       30.10F
JORDAN           N/A     72  25  17 N12       30.12F
SIDNEY         MOSUNNY   69  30  23 N21G28    30.08F
WOLF POINT     SUNNY     73  26  17 N20       30.09F
MALTA          SUNNY     72  30  21 N9G16     30.11F
PLENTYWOOD       N/A     64  28  25 NW23G29   30.07F
POPLAR           N/A     68  28  22 NW13G22   30.09F
SCOBEY           N/A     66  28  24 NW20      30.08F
$$

MTZ028>42-056>058-300000-
SOUTHCENTRAL AND SOUTHEAST MONTANA

CITY           SKY/WX    TMP DP  RH WIND       PRES   REMARKS
BAKER          SUNNY     67  27  22 NW23G32   30.11F
BILLINGS       MOSUNNY   73  38  27 E7        30.14F
LIVINGSTON     MOSUNNY   75  41  29 N7        30.15F
MILES CITY     SUNNY     72  23  16 N18G26    30.11F
BIG TIMBER     SUNNY     72  39  30 VRB7      30.18F
EKALAKA          N/A     63  27  25 NW13      30.10F
FORSYTH          N/A     72  21  15 NW7       30.12F
LAUREL           N/A     73  37  26 E7        30.12F
ROUNDUP          N/A     73  36  26 S3        30.05F
$$

REGIONAL REPORTS...DAKOTAS

CITY           SKY/WX    TMP DP  RH WIND       PRES   REMARKS
WILLISTON      SUNNY     70  30  22 NW22G29   30.06F
MINOT          CLOUDY    64  34  32 NW25G33   29.98S
DICKINSON      MOSUNNY   64  28  25 NW22G29   30.05F
BEACH            N/A     64  28  25 N22G32    30.12F
CROSBY           N/A     66  25  20 N23G32    30.03F
TIOGA            N/A     63  28  27 N26G32    30.04F
WATFORD CITY     N/A     64  32  29 N21G28    30.04F
BISMARCK       CLOUDY    64  36  35 NW20G26   30.01F
GRAND FORKS    CLOUDY    54  46  74 N15G21    29.89R
FARGO          LGT RAIN  55  48  77 NW18      29.90R
BUFFALO SD       N/A     67  31  26 NW22G35   30.04F
RAPID CITY     SUNNY     70  28  21 N20G33    30.09F
$$

REGIONAL REPORTS...WYOMING/IDAHO/WASHINGTON

CITY           SKY/WX    TMP DP  RH WIND       PRES   REMARKS
GILLETTE       SUNNY     67  27  22 N20G26    30.17F
SHERIDAN       SUNNY     69  39  33 N12G22    30.17F
BUFFALO WY     SUNNY     65  29  25 N20G28    30.21S
CODY           SUNNY     68  34  28 NE9G17    30.21F
YELLOWSTONE LA   N/A     60  25  26 VRB3      30.32F
IDAHO FALLS    MOSUNNY   77  33  20 CALM      30.13F
SALMON         CLOUDY    81  36  19 CALM      30.02F
BOISE          SUNNY     87  32  14 S7        29.99F
SPOKANE        MOSUNNY   86  38  18 CALM      29.99F
$$

REGIONAL REPORTS...ALBERTA

CITY           SKY/WX    TMP DP  RH WIND       PRES   REMARKS
EDMONTON       SUNNY     70  36  28 SE6G17    30.14F
CALGARY        MOSUNNY   72  41  33 SE7G21    30.12F
LETHBRIDGE     MOSUNNY   77  43  29 SE9       30.08F
MEDICINE HAT   MOSUNNY   72  34  25 NE5       30.11F
WATERTON GATE    N/A     75  39  27 NW2         N/A
CARDSTON         N/A     75  45  33 W8          N/A
MILK RIVER       N/A     77  41  27 N5          N/A
$$

REGIONAL REPORTS...SASKATCHEWAN

CITY           SKY/WX    TMP DP  RH WIND       PRES   REMARKS
SWIFT CURRENT  SUNNY     66  27  22 NW10G20   30.12F
REGINA         MOSUNNY   66  27  22 N21G28    30.06S
SASKATOON      SUNNY     66  25  20 N15G21    30.11F
CYPRESS HILLS    N/A     61  28  29 N6          N/A
VAL MARIE        N/A     68  27  21 N12G18      N/A
ROCKGLEN         N/A     63  28  27 NW15G22     N/A
ASSINIBOIA       N/A     70  32  24 E7          N/A
$$



USA.gov is the U.S. government's official web portal to all federal, state and local government web resources and services.